User: anonymous   Login
Location: Unspecified
(0.0000°N, 0.0000°E)
Time: 23:22:59
(UTC+00:00)
Language:

PRISM - Orbit

View from above orbital plane
View from above orbital plane
View from above satellite
View from above satellite

Ground track
Ground track

The orbit data is extracted from the following two-line orbital elements,

1 33493U 09002B   18051.53120932  .00000939  00000-0  89107-4 0  9993
2 33493  98.1429 309.0773 0015192 348.6240  11.4655 14.96081118492906
Epoch (UTC): 20 February 2018 12:44:56
Eccentricity: 0.0015192
inclination: 98.1429°
perigee height: 568 km
apogee height: 589 km
right ascension of ascending node: 309.0773°
argument of perigee: 348.6240°
revolutions per day: 14.96081118
mean anomaly at epoch: 11.4655°
orbit number at epoch: 49290

The dashed part of the orbit path shows where the satellite is in the earth's shadow,  

DLR